| time (UTC) | temp F | wind direction | speed knots | gust knots | rain 1hr in | rain 24hr in | rain mn in | humidity % | barometer mb |
| 20260503071830 | 72 | 54 | 2.6 | 5.2 | 0.00 | 0.00 | 0.00 | 33 | 1022.2 |
| 20260503070638 | 71 | 178 | 2.6 | 5.2 | 0.00 | 0.00 | 0.00 | 35 | 1022.2 |
| 20260503054237 | 55 | 34 | 0.9 | 0.9 | 0.00 | 0.00 | 0.00 | 58 | 1022.0 |
| 20260503053033 | 54 | 44 | 0.9 | 1.7 | 0.00 | 0.00 | 0.00 | 59 | 1021.9 |
| 20260503051821 | 52 | 16 | 0.0 | 1.7 | 0.00 | 0.00 | 0.00 | 62 | 1022.0 |
| 20260503050656 | 51 | 12 | 0.0 | 0.9 | 0.00 | 0.00 | 0.00 | 67 | 1022.0 |
| 20260503045423 | 49 | 15 | 0.0 | 0.9 | 0.00 | 0.00 | 0.00 | 71 | 1022.0 |
| 20260503044229 | 48 | 0.0 | 0.0 | 0.00 | 0.00 | 0.00 | 70 | 1022.0 | |
| 20260503043035 | 48 | 8 | 0.0 | 0.0 | 0.00 | 0.00 | 0.00 | 69 | 1021.9 |
| 20260503041922 | 47 | 0.0 | 0.0 | 0.00 | 0.00 | 0.00 | 70 | 1021.9 | |
| 20260503040629 | 47 | 271 | 0.0 | 0.9 | 0.00 | 0.00 | 0.00 | 69 | 1021.9 |
| 20260503035435 | 48 | 0.0 | 0.0 | 0.00 | 0.00 | 0.00 | 64 | 1021.7 | |
| 20260503034252 | 49 | 15 | 0.9 | 1.7 | 0.00 | 0.00 | 0.00 | 64 | 1021.7 |
| 20260503033029 | 48 | 19 | 0.9 | 0.9 | 0.00 | 0.00 | 0.00 | 66 | 1021.6 |
| 20260503031837 | 47 | 0.0 | 0.0 | 0.00 | 0.00 | 0.00 | 67 | 1021.6 | |
| 20260503030624 | 47 | 0.0 | 0.0 | 0.00 | 0.00 | 0.00 | 66 | 1021.7 | |
| 20260503025431 | 48 | 0.0 | 0.0 | 0.00 | 0.00 | 0.00 | 63 | 1021.6 | |
| 20260503024228 | 48 | 29 | 0.9 | 2.6 | 0.00 | 0.00 | 0.00 | 64 | 1021.5 |
| 20260503023036 | 47 | 0.0 | 0.0 | 0.00 | 0.00 | 0.00 | 64 | 1021.5 | |
| 20260503021903 | 47 | 0.0 | 0.0 | 0.00 | 0.00 | 0.00 | 65 | 1021.4 | |
| 20260503020630 | 47 | 0.0 | 0.0 | 0.00 | 0.00 | 0.00 | 65 | 1021.4 | |
| 20260503015437 | 47 | 0.0 | 0.0 | 0.00 | 0.00 | 0.00 | 65 | 1021.6 | |
| 20260503014224 | 48 | 0.0 | 0.0 | 0.00 | 0.00 | 0.00 | 63 | 1021.5 | |
| 20260503013051 | 48 | 0.0 | 0.0 | 0.00 | 0.00 | 0.00 | 62 | 1021.4 | |
| 20260503011839 | 48 | 0.0 | 0.0 | 0.00 | 0.00 | 0.00 | 62 | 1021.5 | |
| 20260503010646 | 49 | 0.0 | 0.0 | 0.00 | 0.00 | 0.00 | 61 | 1021.5 | |
| 20260503005453 | 49 | 0.0 | 0.0 | 0.00 | 0.00 | 0.00 | 62 | 1021.6 | |
| 20260503004300 | 48 | 0.0 | 0.0 | 0.00 | 0.00 | 0.00 | 62 | 1021.5 | |
| 20260503003027 | 48 | 0.0 | 0.0 | 0.00 | 0.00 | 0.00 | 63 | 1021.5 | |
| 20260503001855 | 49 | 0.0 | 0.0 | 0.00 | 0.00 | 0.00 | 60 | 1021.5 | |
| 20260503000622 | 49 | 0.0 | 0.0 | 0.00 | 0.00 | 0.00 | 59 | 1021.6 | |
| 20260502235430 | 50 | 0.0 | 0.0 | 0.00 | 0.00 | 0.00 | 59 | 1021.6 | |
| 20260502234258 | 50 | 0.0 | 0.0 | 0.00 | 0.00 | 0.00 | 59 | 1021.6 | |
| 20260502233035 | 50 | 0.0 | 0.0 | 0.00 | 0.00 | 0.00 | 59 | 1021.7 | |
| 20260502231832 | 50 | 282 | 0.9 | 1.7 | 0.00 | 0.00 | 0.00 | 58 | 1021.7 |
| 20260502230639 | 52 | 0.0 | 0.0 | 0.00 | 0.00 | 0.00 | 57 | 1021.7 | |
| 20260502225426 | 51 | 0.0 | 0.0 | 0.00 | 0.00 | 0.00 | 56 | 1021.8 | |
| 20260502224234 | 52 | 0.0 | 0.0 | 0.00 | 0.00 | 0.00 | 55 | 1021.8 | |
| 20260502223021 | 52 | 277 | 0.0 | 0.9 | 0.00 | 0.00 | 0.00 | 55 | 1021.9 |
| 20260502221848 | 53 | 305 | 0.0 | 0.0 | 0.00 | 0.00 | 0.00 | 54 | 1022.0 |
| 20260502220625 | 0 | 0.0 | 0.0 | 0.00 | 0.00 | 0.00 | |||
| 20260502215457 | 54 | 264 | 1.7 | 1.7 | 0.00 | 0.00 | 0.00 | 53 | 1021.9 |
| 20260502214235 | 55 | 0.0 | 0.0 | 0.00 | 0.00 | 0.00 | 53 | 1021.8 | |
| 20260502213041 | 55 | 0.0 | 0.0 | 0.00 | 0.00 | 0.00 | 53 | 1021.9 | |
| 20260502211839 | 56 | 0.0 | 0.0 | 0.00 | 0.00 | 0.00 | 51 | 1021.9 | |
| 20260502210636 | 58 | 0.0 | 0.0 | 0.00 | 0.00 | 0.00 | 49 | 1021.9 | |
| 20260502205424 | 58 | 0.0 | 0.0 | 0.00 | 0.00 | 0.00 | 49 | 1022.0 | |
| 20260502204231 | 58 | 0.0 | 0.0 | 0.00 | 0.00 | 0.00 | 49 | 1022.0 | |
| 20260502203038 | 59 | 293 | 0.0 | 0.9 | 0.00 | 0.00 | 0.00 | 48 | 1022.1 |
| 20260502201836 | 61 | 0.0 | 0.0 | 0.00 | 0.00 | 0.00 | 47 | 1022.1 | |
| 20260502200643 | 60 | 0.0 | 0.0 | 0.00 | 0.00 | 0.00 | 47 | 1022.2 | |
| 20260502195451 | 62 | 259 | 0.0 | 0.9 | 0.00 | 0.00 | 0.00 | 46 | 1022.2 |
| 20260502194243 | 64 | 0.0 | 0.0 | 0.00 | 0.00 | 0.00 | 44 | 1022.1 | |
| 20260502193028 | 64 | 315 | 0.0 | 0.0 | 0.00 | 0.00 | 0.00 | 44 | 1022.2 |
| 20260502191835 | 65 | 306 | 0.9 | 0.9 | 0.00 | 0.00 | 0.00 | 44 | 1022.1 |
| 20260502190632 | 66 | 0.0 | 0.0 | 0.00 | 0.00 | 0.00 | 44 | 1022.0 | |
| 20260502185429 | 68 | 0.0 | 0.0 | 0.00 | 0.00 | 0.00 | 42 | 1021.9 | |
| 20260502184257 | 69 | 0.0 | 0.0 | 0.00 | 0.00 | 0.00 | 41 | 1021.8 | |
| 20260502183024 | 70 | 0.0 | 0.0 | 0.00 | 0.00 | 0.00 | 39 | 1021.8 | |
| 20260502181851 | 71 | 0.0 | 0.0 | 0.00 | 0.00 | 0.00 | 38 | 1021.7 | |
| 20260502180629 | 73 | 227 | 0.0 | 1.7 | 0.00 | 0.00 | 0.00 | 37 | 1021.6 |
| 20260502164231 | 75 | 39 | 1.7 | 2.6 | 0.00 | 0.00 | 0.00 | 28 | 1021.9 |
| 20260502163038 | 76 | 19 | 1.7 | 2.6 | 0.00 | 0.00 | 0.00 | 28 | 1022.0 |
| 20260502161835 | 76 | 49 | 1.7 | 3.5 | 0.00 | 0.00 | 0.00 | 28 | 1022.2 |
| 20260502160642 | 76 | 31 | 1.7 | 3.5 | 0.00 | 0.00 | 0.00 | 28 | 1022.3 |
| 20260502151839 | 77 | 31 | 1.7 | 2.6 | 0.00 | 0.00 | 0.00 | 27 | 1022.9 |
| 20260502150624 | 77 | 39 | 3.5 | 5.2 | 0.00 | 0.00 | 0.00 | 28 | 1023.0 |
| 20260502130621 | 77 | 18 | 1.7 | 3.5 | 0.00 | 0.00 | 0.00 | 29 | 1024.3 |
| 20260502123032 | 77 | 4 | 1.7 | 2.6 | 0.00 | 0.00 | 0.00 | 31 | 1024.7 |
| 20260502121829 | 75 | 355 | 0.9 | 1.7 | 0.00 | 0.00 | 0.00 | 31 | 1025.0 |
| 20260502120636 | 75 | 338 | 1.7 | 2.6 | 0.00 | 0.00 | 0.00 | 31 | 1025.1 |
| 20260502115434 | 75 | 32 | 2.6 | 7.0 | 0.00 | 0.00 | 0.00 | 31 | 1025.2 |
| 20260502114231 | 76 | 210 | 3.5 | 5.2 | 0.00 | 0.00 | 0.00 | 31 | 1025.4 |
| 20260502113038 | 76 | 351 | 1.7 | 3.5 | 0.00 | 0.00 | 0.00 | 31 | 1025.6 |
| 20260502111834 | 74 | 318 | 1.7 | 2.6 | 0.00 | 0.00 | 0.00 | 31 | 1025.8 |
| 20260502110642 | 74 | 16 | 0.9 | 1.7 | 0.00 | 0.00 | 0.00 | 30 | 1026.0 |
| 20260502105429 | 76 | 38 | 3.5 | 5.2 | 0.00 | 0.00 | 0.00 | 30 | 1026.1 |
| 20260502104236 | 77 | 46 | 3.5 | 5.2 | 0.00 | 0.00 | 0.00 | 29 | 1026.3 |
| 20260502103031 | 77 | 300 | 0.9 | 1.7 | 0.00 | 0.00 | 0.00 | 31 | 1026.4 |
| 20260502101837 | 77 | 26 | 1.7 | 3.5 | 0.00 | 0.00 | 0.00 | 30 | 1026.7 |
| 20260502100639 | 76 | 33 | 0.9 | 3.5 | 0.00 | 0.00 | 0.00 | 31 | 1026.8 |
| 20260502090623 | 74 | 17 | 1.7 | 2.6 | 0.00 | 0.00 | 0.00 | 32 | 1027.6 |